ONEWEB-0171

Last updated on Sun Apr 25 2021 00:02:03 GMT+0000 (Coordinated Universal Time)

1 48070U 21025AE 21114.58336806 -.01038752 00000-0 -38748-1 0 9996 2 48070 87.4227 339.3120 0010500 150.2102 266.1792 15.30123143 1781

Satellite not in orbit

ONEWEB-0171